Regional Weather Roundup
Issued by NWS

Home | Current Version | Previous Version | Text Only | Print | Product List | Glossary Off
Versions: 1 2 3 4 5 6 7 8 9 10 11 12 13 14 15 16 17 18 19 20 21 22 23 24 25 26 27 28 29 30 31 32 33 34 35 36 37 38 39 40 41 42 43 44 45 46 47 48 49 50

000
ASUS45 KTFX 232310
RWRMT
MONTANA REGIONAL WEATHER ROUNDUP
NATIONAL WEATHER SERVICE GREAT FALLS MT
500 PM MDT SAT MAY 23 2015

NOTE: "FAIR" INDICATES FEW OR NO CLOUDS BELOW 12000 FEET WITH NO
SIGNIFICANT WEATHER AND/OR OBSTRUCTIONS TO VISIBILITY.

MTZ001>007-043-240000-
WEST OF THE DIVIDE

CITY           SKY/WX    TMP DP  RH WIND       PRES   REMARKS
KALISPELL      MOCLDY    75  38  26 E7        30.02S
MISSOULA       CLOUDY    68  43  40 W12       30.02S
BUTTE          PTSUNNY   59  38  45 N20G25    30.05S
MULLAN PASS    PTSUNNY   58  33  39 CALM      30.11S
DEER LODGE       N/A     55  43  62 NE14      30.12R
EUREKA           N/A     79  28  15 NE12G20   30.01S
HAMILTON         N/A     66  43  42 N23       29.99F
LIBBY            N/A     77  28  16 E3        29.98S
PLAINS           N/A     80  39  23 NE15      29.99F
RONAN            N/A     74  42  31 N10       30.05F
THOMPSON FALLS   N/A     80  40  24 NE6       30.00F
$$

MTZ008-052>055-240000-
SOUTHWEST MONTANA

CITY           SKY/WX    TMP DP  RH WIND       PRES   REMARKS
BOZEMAN        CLOUDY    56  46  69 N8        30.04S
DILLON         PTSUNNY   60  42  51 N26G35    30.00R
W YELLOWSTONE  LGT RAIN  50  39  66 N10G17    30.02R
THREE FORKS      N/A     57  57 100 N3        30.04S
$$

MTZ009-010-012-014-046-048-049-054-240000-
EAST SLOPES AND CENTRAL MONTANA

CITY           SKY/WX    TMP DP  RH WIND       PRES   REMARKS
CUT BANK       CLOUDY    61  47  59 S6        30.11R
GREAT FALLS    CLOUDY    53  49  86 SW7       30.09F
MALMSTROM AFB  CLOUDY    56  49  78 SW8       30.09S
HELENA         CLOUDY    56  49  77 N12       30.07F
CONRAD           N/A     56  51  83 N1        30.12S
$$

MTZ011-013-016-021-045-047-050-051-240000-
NORTH CENTRAL MONTANA

CITY           SKY/WX    TMP DP  RH WIND       PRES   REMARKS
HAVRE          MOSUNNY   71  43  36 E20G29    30.07R
LEWISTOWN      PTSUNNY   61  46  57 VRB5      30.08S
N BAR RANCH    CLOUDY    59  41  51 N12       30.09S
CHINOOK          N/A     70  41  35 E12G20    30.07S
FORT BENTON      N/A     70  46  43 S5        30.07S
$$

MTZ017>020-022>027-061-062-240000-
NORTHEAST MONTANA

CITY           SKY/WX    TMP DP  RH WIND       PRES   REMARKS
GLASGOW        PTSUNNY   74  37  26 SE21      30.06S
JORDAN           N/A     65  42  43 E16G23    30.06R
SIDNEY         CLOUDY    70  41  35 E16       30.08S
WOLF POINT     PTSUNNY   72  39  30 E16G25    30.07S
MALTA            N/A     73  39  29 E14       30.02F
PLENTYWOOD       N/A     72  34  25 E16G22    30.09S
POPLAR           N/A     72  37  28 E14       30.07F
SCOBEY           N/A     71  35  26 E14       30.08F
$$

MTZ028>42-056>058-240000-
SOUTHCENTRAL AND SOUTHEAST MONTANA

CITY           SKY/WX    TMP DP  RH WIND       PRES   REMARKS
BAKER          LGT RAIN  52  50  93 E6        30.10S
BILLINGS       LGT RAIN  61  43  51 E8        30.01S
LIVINGSTON     LGT RAIN  52  48  86 E10       30.04S
MILES CITY     LGT RAIN  54  53  97 SE8       30.07R
BIG TIMBER       N/A     52  48  87 N5        30.06S
EKALAKA          N/A     51  46  83 E8        30.04F
FORSYTH          N/A     55  54  94 E12       30.06R
LAUREL           N/A     61  42  49 NE5       30.00S
ROUNDUP          N/A     65  40  39 NE9       29.94S
$$

REGIONAL REPORTS...DAKOTAS

CITY           SKY/WX    TMP DP  RH WIND       PRES   REMARKS
WILLISTON      PTSUNNY   72  36  26 SE13      30.08F
MINOT          MOSUNNY   74  35  24 VRB5      30.07F
DICKINSON      CLOUDY    60  45  57 E12       30.08F
BEACH          LGT RAIN  55  52  88 SE9       30.11S
CROSBY         FAIR      75  34  22 SE9       30.09F
WATFORD CITY   FAIR      70  39  32 SE17G24   30.07F
BISMARCK       CLOUDY    63  48  58 SE8       30.11S
GRAND FORKS    SUNNY     76  43  30 S8        30.08F
FARGO          MOSUNNY   71  45  39 S14G21    30.12F
BUFFALO SD       N/A     57  47  69 SE10      30.00S
RAPID CITY     CLOUDY    58  50  75 E14       30.02S
$$

REGIONAL REPORTS...WYOMING/IDAHO/WASHINGTON

CITY           SKY/WX    TMP DP  RH WIND       PRES   REMARKS
GILLETTE       CLOUDY    58  46  64 E12       29.99F
SHERIDAN       CLOUDY    53  47  79 NE10      30.02S
BUFFALO WY     CLOUDY    51  48  89 N16G25    30.02F
CODY           CLOUDY    48  43  81 NW7       30.02S
YELLOWSTONE LA   N/A     46  38  73 CALM      30.07R
IDAHO FALLS    LGT RAIN  52  48  86 SW3       29.97R FOG
SALMON         PTSUNNY   68  39  34 N12G18    29.92F
BOISE          PTSUNNY   77  47  34 NW17G23   29.83R
SPOKANE        MOSUNNY   81  32  17 CALM      29.96F
$$

REGIONAL REPORTS...ALBERTA

CITY           SKY/WX    TMP DP  RH WIND       PRES   REMARKS
EDMONTON       SUNNY     79  32  18 NE9       30.07F
CALGARY        MOSUNNY   75  28  17 E13G21    30.13F
LETHBRIDGE     MOSUNNY   75  30  19 NE15G24   30.08F
MEDICINE HAT   PTSUNNY   79  30  17 E13G25    30.06F
$$

REGIONAL REPORTS...SASKATCHEWAN

CITY           SKY/WX    TMP DP  RH WIND       PRES   REMARKS
SWIFT CURRENT  PTSUNNY   72  30  21 E14G25    30.10F
REGINA         PTSUNNY   77  32  19 N5        30.08F
SASKATOON      PTSUNNY   81  28  15 VRB2      30.08F
$$


USA.gov is the U.S. government's official web portal to all federal, state and local government web resources and services.